Regional Weather Roundup
Issued by NWS

Home | Current Version | Previous Version | Text Only | Print | Product List | Glossary On
Versions: 1 2 3 4 5 6 7 8 9 10 11 12 13 14 15 16 17 18 19 20 21 22 23 24 25 26 27 28 29 30 31 32 33 34 35 36 37 38 39 40 41 42 43 44 45 46 47 48 49 50
000
ASUS43 KMPX 271810
RWRMN
WEATHER ROUNDUP FOR MINNESOTA
NATIONAL WEATHER SERVICE TWIN CITIES/CHANHASSEN MN
100 PM CDT MON APR 27 2015


NOTE: "FAIR" INDICATES FEW OR NO CLOUDS BELOW 12,000 FEET WITH NO
SIGNIFICANT WEATHER AND/OR OBSTRUCTIONS TO VISIBILITY. N/A MEANS
CURRENT SKY AND/OR WEATHER CONDITIONS ARE NOT AVAILABLE.

MNZ060>063-068>070-271900-
   Twin Cities Metro

CITY           SKY/WX    TMP DP  RH WIND       PRES   REMARKS
TWIN CITIES    SUNNY     63  28  26 N14       30.22F
6HR MIN TEMP:  43; 6HR MAX TEMP:  64;

ST PAUL        SUNNY     64  27  24 N10G16    30.23F
CRYSTAL        SUNNY     65  27  23 N12G20    30.22F
BLAINE         SUNNY     64  27  24 N12       30.22F
LAKEVILLE      SUNNY     63  28  27 N12       30.22F
EDEN PRAIRIE   SUNNY     63  29  27 N9        30.21F
6HR MIN TEMP:  41; 6HR MAX TEMP:  64;

SOUTH ST PAUL  SUNNY     63  27  25 N10       30.22F
LAKE ELMO      FAIR      63  30  29 N10       30.22F
$$
MNZ001>005-007-008-013>017-022>024-027-028-271900-
   Northwest Minnesota

CITY           SKY/WX    TMP DP  RH WIND       PRES   REMARKS
BEMIDJI        PTSUNNY   65  28  24 CALM      30.21F
HALLOCK        PTSUNNY   61  43  51 N9        30.21F
ROSEAU         PTSUNNY   68  36  30 W10G16    30.19F
WARROAD        PTSUNNY   68  34  28 SW14      30.19F
THIEF RVR FALL MOSUNNY   66  28  24 S6G16     30.21F
CROOKSTON      MOSUNNY   68  28  22 W7        30.20F
FOSSTON        SUNNY     70  25  18 NW6       30.21F
DETROIT LAKES  SUNNY     64  27  24 SW5       30.23F
MOORHEAD       MOSUNNY   66  21  18 CALM      30.22F
PARK RAPIDS    MOSUNNY   68  22  17 MISG      30.20F
MAHNOMEN       FAIR      67  27  22 W8        30.21F
$$
MNZ006-009>011-018-025>026-271900-
   North Central Minnesota

CITY           SKY/WX    TMP DP  RH WIND       PRES   REMARKS
BAUDETTE       MOSUNNY   68  26  20 W8        30.19F
FLAG ISLAND    CLOUDY    54  25  32 S6        30.19S
INTL FALLS     SUNNY     64  25  22 CALM      30.20F
6HR MIN TEMP:  29; 6HR MAX TEMP:  64;

WASKISH        MOSUNNY   64  28  25 CALM      30.21F
BIG FORK       SUNNY     66  19  16 N8        30.20F
LONGVILLE      SUNNY     66  21  18 NE3       30.21F
GRAND RAPIDS   SUNNY     63  21  20 NW12      30.21F
CRANE LAKE     SUNNY     61  21  21 NE3       30.23F
ORR            SUNNY     64  18  16 CALM      30.18F
COOK           SUNNY     63  27  25 N5        30.21F
WALKER         FAIR      65  27  23 E5        30.20F
$$
MNZ012-019>021-037-271900-
   Northeast Minnesota

CITY           SKY/WX    TMP DP  RH WIND       PRES   REMARKS
DULUTH         SUNNY     61  29  29 S6        30.20F
6HR MIN TEMP:  36; 6HR MAX TEMP:  61;

ELY            SUNNY     59  27  29 CALM      30.20F
HIBBING        SUNNY     66  22  18 NE9       30.20F
EVELETH        SUNNY     63  25  23 N7        30.22S
DULUTH HARBOR  SUNNY     48  30  49 N5        30.23F
TWO HARBORS    SUNNY     63  37  39 S9        30.19F
SILVER BAY     SUNNY     59  30  33 S8        30.18F
GRAND MARAIS     N/A     41  33  73 SW8       30.21S
G MARAIS ARPRT SUNNY     59  25  27 N6        30.19F
$$
MNZ029>031-032-039>041-046>048-054>057-064-271900-
   West Central Minnesota

CITY           SKY/WX    TMP DP  RH WIND       PRES   REMARKS
FERGUS FALLS   SUNNY     64  14  14 W5        30.23F
WHEATON        SUNNY     63  21  20 SE5       30.24F
MORRIS         SUNNY     66  23  19 W5        30.22F
ALEXANDRIA     SUNNY     63  23  21 W7        30.24F
ELBOW LAKE     FAIR      64  24  22 NW5       30.23F
WADENA         SUNNY     64  27  24 NW7       30.22F
GLENWOOD       SUNNY     64  21  19 NW9       30.23F
APPLETON       SUNNY     66  18  15 NW3       30.22F
BENSON         SUNNY     66  16  14 NE7       30.23F
ORTONVILLE     SUNNY     64  19  17 NW3       30.23F
MADISON        SUNNY     64  19  17 N5        30.22F
WILLMAR        FAIR      64  25  22 CALM      30.24F
$$
MNZ033>034-036-042>043-049>051-058-059-271900-
   Central Minnesota

CITY           SKY/WX    TMP DP  RH WIND       PRES   REMARKS
ST CLOUD       SUNNY     65  23  20 N12       30.21F
6HR MIN TEMP:  31; 6HR MAX TEMP:  65;

SAUK CENTRE    FAIR      62  24  23 CALM      30.23F
PAYNESVILLE    SUNNY     60  24  25 W10G20    30.23F
AITKIN         SUNNY     66   0   7 NW3       30.19F
PINE RIVER     SUNNY     64  30  27 N9        30.23F
BRAINERD       SUNNY     65  21  18 VRB5      30.21F
STAPLES        SUNNY     64  19  17 CALM      30.21F
LONG PRAIRIE   FAIR      63  27  25 W8        30.22F
LITTLE FALLS   SUNNY     63  19  19 CALM      30.22F
LITCHFIELD     SUNNY     64  25  22 NW12      30.23F
BUFFALO        SUNNY     63  23  22 N6        30.23F
MAPLE LAKE     SUNNY     65  28  25 NW8       30.23F
$$
MNZ037-044-045-052-053-271900-
   East Central Minnesota

CITY           SKY/WX    TMP DP  RH WIND       PRES   REMARKS
PRINCETON      SUNNY     66  25  20 NW8       30.22F
MORA           SUNNY     64  21  19 N6        30.22F
CAMBRIDGE      SUNNY     64  39  39 NW7       30.21F
RUSH CITY      SUNNY     62  28  27 CALM      30.22F
MOOSE LAKE     SUNNY     63  28  27 CALM      30.19F
HINCKLEY       FAIR      64  27  24 N5        30.21F
CLOQUET        SUNNY     63  18  17 N5G23     30.20F
MCGREGOR       SUNNY     63  23  22 N5        30.21F
$$
MNZ071>073-080-081-089-090-097-098-271900-
   Southwest Minnesota

CITY           SKY/WX    TMP DP  RH WIND       PRES   REMARKS
MONTEVIDEO     SUNNY     66  21  18 CALM      30.23F
GRANITE FALLS  SUNNY     64  21  19 CALM      30.24F
CANBY          SUNNY     63  21  20 CALM      30.24F
MARSHALL       SUNNY     64  21  19 E10       30.22F
REDWOOD FALLS  SUNNY     66  23  19 VRB6      30.23F
OLIVIA         SUNNY     61  25  25 N8        30.22F
PIPESTONE      SUNNY     63  18  17 E3        30.22F
WINDOM         SUNNY     63  23  22 NE7G16    30.23F
WORTHINGTON    SUNNY     63  25  23 E5        30.22F
JACKSON        SUNNY     63  21  20 NE13      30.22F
TRACY          SUNNY     64  24  22 E3        30.23F
SLAYTON        SUNNY     63  20  19 CALM      30.23F
$$
MNZ065>067-074>077-082>085-091>093-271900-
   South Central Minnesota

CITY           SKY/WX    TMP DP  RH WIND       PRES   REMARKS
MANKATO        SUNNY     63  28  27 NE12G17   30.22F
NEW ULM        SUNNY     63  23  22 NE7       30.22F
ST JAMES       SUNNY     64  21  19 N7G18     30.23F
FAIRMONT       SUNNY     63  25  23 N9G21     30.21F
GLENCOE        SUNNY     64  28  26 NW12      30.22F
FARIBAULT      SUNNY     63  28  27 N10G16    30.22F
OWATONNA       SUNNY     63  27  25 N9G17     30.21F
WASECA         SUNNY     63  30  29 N12       30.23F
ALBERT LEA     SUNNY     61  27  27 N12G20    30.21F
$$
MNZ078>079-086>088-094>096-271900-
   Southeast Minnesota

CITY           SKY/WX    TMP DP  RH WIND       PRES   REMARKS
ROCHESTER      SUNNY     60  35  39 NE10G23   30.22F
6HR MIN TEMP:  38; 6HR MAX TEMP:  60;

RED WING       SUNNY     64  27  24 NE9       30.20F
STANTON        SUNNY     64  26  24 N9G20     30.20F
DODGE CENTER   SUNNY     61  34  36 N14       30.21F
WINONA         SUNNY     61  32  33 N3        30.20F
AUSTIN         SUNNY     61  34  36 NE8       30.20F
PRESTON        SUNNY     57  32  39 N12G18    30.20F
$$
ABBREVIATIONS USED IN REMARKS
   TC - TEMPERATURES IN CELSIUS
  WCI - WIND CHILL INDEX
   HX - HEAT INDEX
  VSB - VISIBILITY
$$



USA.gov is the U.S. government's official web portal to all federal, state and local government web resources and services.